,,Stat5,,Stat1,,Stat2,,Stat3,,Stat4,,Wind1,,Wind1,
time,status,PA1M_AVG,status,PR1M_SUM,status,RH1M_AVG,status,SR1M_AVG,status,TA1M_AVG,status,W1dAve1m,status,W1sAve1m,
2000-10-09, 00:00:00,VALID,918.513,VALID,0,VALID,97.5079,VALID,0,VALID,19.4597,VALID,82,VALID,0.663851,
2000-10-09, 00:01:00,VALID,918.52,VALID,0,VALID,97.4227,VALID,0,VALID,19.4465,VALID,101,VALID,0.5625,
2000-10-09, 00:02:00,VALID,918.508,VALID,0,VALID,97.452,VALID,0,VALID,19.4564,VALID,101,VALID,0.357973,
2000-10-09, 00:03:00,VALID,918.505,VALID,0,VALID,97.4672,VALID,0,VALID,19.4659,VALID,41,VALID,0.327703,
2000-10-09, 00:04:00,VALID,918.497,VALID,0,VALID,97.4138,VALID,0,VALID,19.4664,VALID,74,VALID,0.480263,
2000-10-09, 00:05:00,VALID,918.48,VALID,0,VALID,97.4698,VALID,0,VALID,19.4887,VALID,143,VALID,0.013529,
2000-10-09, 00:06:00,VALID,918.46,VALID,0,VALID,97.4418,VALID,-0.0339617,VALID,19.5114,VALID,185,VALID,0.000976563,
2000-10-09, 00:07:00,VALID,918.456,VALID,0,VALID,97.321,VALID,0,VALID,19.524,VALID,304,VALID,0.167869,
2000-10-09, 00:08:00,VALID,918.454,VALID,0,VALID,97.2612,VALID,0,VALID,19.5337,VALID,307,VALID,0.146176,
2000-10-09, 00:09:00,VALID,918.456,VALID,0,VALID,97.2663,VALID,0,VALID,19.5506,VALID,322,VALID,0.173399,
2000-10-09, 00:10:00,VALID,918.454,VALID,0,VALID,97.251,VALID,0,VALID,19.5501,VALID,324,VALID,0.0565378,
2000-10-09, 00:11:00,VALID,918.437,VALID,0,VALID,97.2447,VALID,0,VALID,19.5598,VALID,22,VALID,0.178865,
2000-10-09, 00:12:00,VALID,918.429,VALID,0,VALID,97.3223,VALID,0,VALID,19.566,VALID,98,VALID,0.412326,
2000-10-09, 00:13:00,VALID,918.434,VALID,0,VALID,97.3629,VALID,0,VALID,19.5919,VALID,101,VALID,0.510769,
2000-10-09, 00:14:00,VALID,918.413,VALID,0,VALID,97.293,VALID,0,VALID,19.6053,VALID,104,VALID,0.0127232,
2000-10-09, 00:15:00,VALID,918.396,VALID,0,VALID,97.265,VALID,0,VALID,19.6177,VALID,102,VALID,0,
2000-10-09, 00:16:00,VALID,918.365,VALID,0,VALID,97.2599,VALID,0,VALID,19.6306,VALID,101,VALID,0,
2000-10-09, 00:17:00,VALID,918.337,VALID,0,VALID,97.2396,VALID,0,VALID,19.6237,VALID,103,VALID,0.190995,
2000-10-09, 00:18:00,VALID,918.315,VALID,0,VALID,97.1658,VALID,0.0339617,VALID,19.6336,VALID,116,VALID,0.403294,
2000-10-09, 00:19:00,VALID,918.279,VALID,0,VALID,97.0807,VALID,0.0169808,VALID,19.6406,VALID,105,VALID,0.340039,
2000-10-09, 00:20:00,VALID,918.261,VALID,0,VALID,97.0412,VALID,0,VALID,19.65,VALID,120,VALID,0,
2000-10-09, 00:21:00,VALID,918.233,VALID,0,VALID,96.8988,VALID,0.0169808,VALID,19.6436,VALID,160,VALID,0.0527344,
2000-10-09, 00:22:00,VALID,918.223,VALID,0,VALID,96.8098,VALID,0.0169808,VALID,19.6403,VALID,206,VALID,0,
2000-10-09, 00:23:00,VALID,918.215,VALID,0,VALID,96.7513,VALID,0.0169808,VALID,19.6274,VALID,206,VALID,0,
2000-10-09, 00:24:00,VALID,918.208,VALID,0,VALID,96.7195,VALID,0,VALID,19.6535,VALID,206,VALID,0,
2000-10-09, 00:25:00,VALID,918.201,VALID,0,VALID,96.6928,VALID,0.0169808,VALID,19.6572,VALID,206,VALID,0,
2000-10-09, 00:26:00,VALID,918.18,VALID,0,VALID,96.5211,VALID,0,VALID,19.6207,VALID,206,VALID,0,
2000-10-09, 00:27:00,VALID,918.16,VALID,0,VALID,96.5097,VALID,0.0169808,VALID,19.6083,VALID,206,VALID,0,
2000-10-09, 00:28:00,VALID,918.126,VALID,0,VALID,96.6585,VALID,0.0169808,VALID,19.5854,VALID,206,VALID,0,
2000-10-09, 00:29:00,VALID,918.086,VALID,0,VALID,96.6915,VALID,0,VALID,19.5628,VALID,206,VALID,0,
2000-10-09, 00:30:00,VALID,918.073,VALID,0,VALID,96.7399,VALID,0,VALID,19.5362,VALID,206,VALID,0,
2000-10-09, 00:31:00,VALID,918.055,VALID,0,VALID,96.6966,VALID,0,VALID,19.5268,VALID,206,VALID,0,
2000-10-09, 00:32:00,VALID,918.021,VALID,0,VALID,96.703,VALID,0,VALID,19.5173,VALID,200,VALID,0,
2000-10-09, 00:33:00,VALID,917.994,VALID,0,VALID,96.7996,VALID,0,VALID,19.534,VALID,181,VALID,0.00868056,
2000-10-09, 00:34:00,VALID,917.964,VALID,0,VALID,96.8886,VALID,0,VALID,19.5206,VALID,122,VALID,0.429018,
2000-10-09, 00:35:00,VALID,917.953,VALID,0,VALID,96.9446,VALID,-0.0169808,VALID,19.5302,VALID,119,VALID,0.327753,
2000-10-09, 00:36:00,VALID,917.928,VALID,0,VALID,96.8721,VALID,0.0169808,VALID,19.5439,VALID,120,VALID,0.302998,
2000-10-09, 00:37:00,VALID,917.916,VALID,0,VALID,96.8263,VALID,0,VALID,19.5205,VALID,121,VALID,0.25739,
2000-10-09, 00:38:00,VALID,917.893,VALID,0,VALID,96.8556,VALID,0,VALID,19.5302,VALID,121,VALID,0.219984,
2000-10-09, 00:39:00,VALID,917.87,VALID,0,VALID,96.8797,VALID,0.0169808,VALID,19.5432,VALID,121,VALID,0.0891768,
2000-10-09, 00:40:00,VALID,917.832,VALID,0,VALID,96.8645,VALID,0,VALID,19.5561,VALID,122,VALID,0.200658,
2000-10-09, 00:41:00,VALID,917.817,VALID,0,VALID,96.7017,VALID,-0.0169808,VALID,19.5432,VALID,122,VALID,0,
2000-10-09, 00:42:00,VALID,917.797,VALID,0,VALID,96.6814,VALID,0.0169808,VALID,19.5337,VALID,112,VALID,0,
2000-10-09, 00:43:00,VALID,917.784,VALID,0,VALID,96.764,VALID,0.0339617,VALID,19.5265,VALID,108,VALID,0,
2000-10-09, 00:44:00,VALID,917.786,VALID,0,VALID,96.6839,VALID,0.0169808,VALID,19.5201,VALID,98,VALID,0,
2000-10-09, 00:45:00,VALID,917.761,VALID,0,VALID,96.7615,VALID,0,VALID,19.5044,VALID,100,VALID,0,
2000-10-09, 00:46:00,VALID,917.758,VALID,0,VALID,96.8352,VALID,0,VALID,19.5141,VALID,96,VALID,0,
2000-10-09, 00:47:00,VALID,917.753,VALID,0,VALID,96.8492,VALID,0,VALID,19.5136,VALID,81,VALID,0,
2000-10-09, 00:48:00,VALID,917.739,VALID,0,VALID,96.8136,VALID,0,VALID,19.5302,VALID,80,VALID,0,
2000-10-09, 00:49:00,VALID,917.746,VALID,0,VALID,96.6674,VALID,0,VALID,19.5243,VALID,80,VALID,0,
2000-10-09, 00:50:00,VALID,917.74,VALID,0,VALID,96.6598,VALID,-0.0169808,VALID,19.5178,VALID,119,VALID,0,
2000-10-09, 00:51:00,VALID,917.742,VALID,0,VALID,96.6407,VALID,0,VALID,19.5176,VALID,143,VALID,0,
2000-10-09, 00:52:00,VALID,917.738,VALID,0,VALID,96.5555,VALID,0.0169808,VALID,19.5238,VALID,143,VALID,0,
2000-10-09, 00:53:00,VALID,917.724,VALID,0,VALID,96.4118,VALID,0,VALID,19.524,VALID,143,VALID,0,
2000-10-09, 00:54:00,VALID,917.733,VALID,0,VALID,96.38,VALID,0,VALID,19.534,VALID,143,VALID,0,
2000-10-09, 00:55:00,VALID,917.718,VALID,0,VALID,96.2948,VALID,0,VALID,19.5265,VALID,143,VALID,0,
2000-10-09, 00:56:00,VALID,917.7,VALID,0,VALID,96.1448,VALID,0,VALID,19.5531,VALID,143,VALID,0,
2000-10-09, 00:57:00,VALID,917.679,VALID,0,VALID,96.1295,VALID,0,VALID,19.5471,VALID,143,VALID,0,
2000-10-09, 00:58:00,VALID,917.646,VALID,0,VALID,96.1943,VALID,0,VALID,19.5596,VALID,143,VALID,0,
2000-10-09, 00:59:00,VALID,917.652,VALID,0,VALID,96.2096,VALID,0.0169808,VALID,19.5695,VALID,143,VALID,0,
2000-10-09, 01:00:00,VALID,917.628,VALID,0,VALID,96.202,VALID,0.0169808,VALID,19.572,VALID,143,VALID,0,
2000-10-09, 01:01:00,VALID,917.615,VALID,0,VALID,96.2884,VALID,-0.0849042,VALID,19.57,VALID,126,VALID,0,
2000-10-09, 01:02:00,VALID,917.591,VALID,0,VALID,96.2808,VALID,-0.0679233,VALID,19.561,VALID,113,VALID,0,
2000-10-09, 01:03:00,VALID,917.575,VALID,0,VALID,96.1676,VALID,-0.101885,VALID,19.5282,VALID,113,VALID,0,
2000-10-09, 01:04:00,VALID,917.554,VALID,0,VALID,96.0227,VALID,-0.101885,VALID,19.4927,VALID,81,VALID,0,
2000-10-09, 01:05:00,VALID,917.547,VALID,0,VALID,95.9756,VALID,-0.101885,VALID,19.4736,VALID,47,VALID,0,
2000-10-09, 01:06:00,VALID,917.529,VALID,0,VALID,96.0608,VALID,-0.118866,VALID,19.4678,VALID,47,VALID,0,
2000-10-09, 01:07:00,VALID,917.506,VALID,0,VALID,96.221,VALID,-0.101885,VALID,19.4542,VALID,47,VALID,0,
2000-10-09, 01:08:00,VALID,917.484,VALID,0,VALID,96.2668,VALID,-0.101885,VALID,19.435,VALID,47,VALID,0,
2000-10-09, 01:09:00,VALID,917.467,VALID,0,VALID,96.3584,VALID,-0.101885,VALID,19.4057,VALID,47,VALID,0,
2000-10-09, 01:10:00,VALID,917.452,VALID,0,VALID,96.5326,VALID,-0.101885,VALID,19.4094,VALID,48,VALID,0,
2000-10-09, 01:11:00,VALID,917.444,VALID,0,VALID,96.6648,VALID,-0.101885,VALID,19.4027,VALID,69,VALID,0,
2000-10-09, 01:12:00,VALID,917.44,VALID,0,VALID,96.7017,VALID,-0.0849042,VALID,19.4097,VALID,84,VALID,0,
2000-10-09, 01:13:00,VALID,917.443,VALID,0,VALID,96.6165,VALID,-0.118866,VALID,19.3997,VALID,85,VALID,0,
2000-10-09, 01:14:00,VALID,917.457,VALID,0,VALID,96.6102,VALID,-0.118866,VALID,19.3868,VALID,85,VALID,0,
2000-10-09, 01:15:00,VALID,917.472,VALID,0,VALID,96.6623,VALID,-0.0849042,VALID,19.3771,VALID,85,VALID,0,
2000-10-09, 01:16:00,VALID,917.482,VALID,0,VALID,96.7996,VALID,-0.0169808,VALID,19.3757,VALID,85,VALID,0,
2000-10-09, 01:17:00,VALID,917.497,VALID,0,VALID,97.0438,VALID,0.0169808,VALID,19.4015,VALID,85,VALID,0,
2000-10-09, 01:18:00,VALID,917.497,VALID,0,VALID,97.0298,VALID,0,VALID,19.4015,VALID,85,VALID,0,
2000-10-09, 01:19:00,VALID,917.507,VALID,0,VALID,96.9611,VALID,0.0169808,VALID,19.3886,VALID,85,VALID,0,
2000-10-09, 01:20:00,VALID,917.509,VALID,0,VALID,96.881,VALID,0.0339617,VALID,19.359,VALID,85,VALID,0,
2000-10-09, 01:21:00,VALID,917.498,VALID,0,VALID,96.9293,VALID,0.0339617,VALID,19.3429,VALID,89,VALID,0,
2000-10-09, 01:22:00,VALID,917.498,VALID,0,VALID,97.0476,VALID,0,VALID,19.3362,VALID,93,VALID,0,
2000-10-09, 01:23:00,VALID,917.494,VALID,0,VALID,97.1302,VALID,0.0339617,VALID,19.3429,VALID,93,VALID,0,
2000-10-09, 01:24:00,VALID,917.464,VALID,0,VALID,97.1519,VALID,0.0169808,VALID,19.3498,VALID,93,VALID,0,
2000-10-09, 01:25:00,VALID,917.444,VALID,0,VALID,97.1938,VALID,0.0169808,VALID,19.3431,VALID,93,VALID,0,
2000-10-09, 01:26:00,VALID,917.417,VALID,0,VALID,97.2218,VALID,0.0339617,VALID,19.3464,VALID,93,VALID,0,
2000-10-09, 01:27:00,VALID,917.385,VALID,0,VALID,97.3083,VALID,0.0169808,VALID,19.3595,VALID,93,VALID,0,
2000-10-09, 01:28:00,VALID,917.343,VALID,0,VALID,97.3324,VALID,0.0339617,VALID,19.3558,VALID,92,VALID,0,
2000-10-09, 01:29:00,VALID,917.322,VALID,0,VALID,97.3617,VALID,0,VALID,19.3431,VALID,92,VALID,0,
2000-10-09, 01:30:00,VALID,917.302,VALID,0,VALID,97.3909,VALID,0,VALID,19.3367,VALID,92,VALID,0,
2000-10-09, 01:31:00,VALID,917.298,VALID,0,VALID,97.485,VALID,-0.0169808,VALID,19.3468,VALID,92,VALID,0,
2000-10-09, 01:32:00,VALID,917.279,VALID,0,VALID,97.574,VALID,0,VALID,19.3498,VALID,92,VALID,0,
2000-10-09, 01:33:00,VALID,917.269,VALID,0,VALID,97.6262,VALID,0.0169808,VALID,19.356,VALID,92,VALID,0,
2000-10-09, 01:34:00,VALID,917.257,VALID,0,VALID,97.6224,VALID,0.0339617,VALID,19.3531,VALID,86,VALID,0,
2000-10-09, 01:35:00,VALID,917.241,VALID,0,VALID,97.5931,VALID,0.0169808,VALID,19.3464,VALID,90,VALID,0,
2000-10-09, 01:36:00,VALID,917.218,VALID,0,VALID,97.6363,VALID,0.0169808,VALID,19.3399,VALID,90,VALID,0,
2000-10-09, 01:37:00,VALID,917.21,VALID,0,VALID,97.6758,VALID,0.0509425,VALID,19.3397,VALID,90,VALID,0,
2000-10-09, 01:38:00,VALID,917.182,VALID,0,VALID,97.6923,VALID,0.0169808,VALID,19.3399,VALID,90,VALID,0,
2000-10-09, 01:39:00,VALID,917.172,VALID,0,VALID,97.7076,VALID,0.0339617,VALID,19.3334,VALID,90,VALID,0,
2000-10-09, 01:40:00,VALID,917.158,VALID,0,VALID,97.6923,VALID,0.0509425,VALID,19.3334,VALID,90,VALID,0,
2000-10-09, 01:41:00,VALID,917.141,VALID,0,VALID,97.6808,VALID,0.0339617,VALID,19.3138,VALID,90,VALID,0,
2000-10-09, 01:42:00,VALID,917.128,VALID,0,VALID,97.6936,VALID,-0.0169808,VALID,19.3272,VALID,91,VALID,0,
2000-10-09, 01:43:00,VALID,917.131,VALID,0,VALID,97.6541,VALID,0.0169808,VALID,19.3208,VALID,92,VALID,0,
2000-10-09, 01:44:00,VALID,917.108,VALID,0,VALID,97.6122,VALID,-0.0169808,VALID,19.3048,VALID,92,VALID,0,
2000-10-09, 01:45:00,VALID,917.1,VALID,0,VALID,97.5524,VALID,-0.0849042,VALID,19.3063,VALID,85,VALID,0,
2000-10-09, 01:46:00,VALID,917.102,VALID,0,VALID,97.5194,VALID,-0.0169808,VALID,19.2723,VALID,85,VALID,0,
2000-10-09, 01:47:00,VALID,917.103,VALID,0,VALID,97.5155,VALID,0.0169808,VALID,19.2753,VALID,85,VALID,0,
2000-10-09, 01:48:00,VALID,917.107,VALID,0,VALID,97.4736,VALID,0,VALID,19.2658,VALID,66,VALID,0,
2000-10-09, 01:49:00,VALID,917.111,VALID,0,VALID,97.4011,VALID,0.0169808,VALID,19.2368,VALID,55,VALID,0,
2000-10-09, 01:50:00,VALID,917.104,VALID,0,VALID,97.4113,VALID,0,VALID,19.2306,VALID,55,VALID,0,
2000-10-09, 01:51:00,VALID,917.103,VALID,0,VALID,97.5283,VALID,0.0169808,VALID,19.2333,VALID,55,VALID,0,
2000-10-09, 01:52:00,VALID,917.088,VALID,0,VALID,97.5689,VALID,0,VALID,19.2142,VALID,50,VALID,0,
2000-10-09, 01:53:00,VALID,917.073,VALID,0,VALID,97.5219,VALID,0,VALID,19.1953,VALID,30,VALID,0,
2000-10-09, 01:54:00,VALID,917.057,VALID,0,VALID,97.588,VALID,0,VALID,19.1888,VALID,30,VALID,0,
2000-10-09, 01:55:00,VALID,917.034,VALID,0,VALID,97.6681,VALID,0,VALID,19.2047,VALID,30,VALID,0,
2000-10-09, 01:56:00,VALID,917.002,VALID,0,VALID,97.6681,VALID,0.0169808,VALID,19.1883,VALID,38,VALID,0,
2000-10-09, 01:57:00,VALID,916.984,VALID,0,VALID,97.7355,VALID,0.0169808,VALID,19.1948,VALID,52,VALID,0,
2000-10-09, 01:58:00,VALID,916.966,VALID,0,VALID,97.7686,VALID,0,VALID,19.2114,VALID,52,VALID,0,
2000-10-09, 01:59:00,VALID,916.939,VALID,0,VALID,97.7673,VALID,0,VALID,19.2109,VALID,70,VALID,0,
2000-10-09, 02:00:00,VALID,916.908,VALID,0,VALID,97.7966,VALID,0,VALID,19.2303,VALID,80,VALID,0,
2000-10-09, 02:01:00,VALID,916.882,VALID,0,VALID,97.8067,VALID,-0.0169808,VALID,19.2534,VALID,80,VALID,0,
2000-10-09, 02:02:00,VALID,916.858,VALID,0,VALID,97.7533,VALID,0,VALID,19.2663,VALID,86,VALID,0,
2000-10-09, 02:03:00,VALID,916.851,VALID,0,VALID,97.6859,VALID,0.0169808,VALID,19.2725,VALID,90,VALID,0,
2000-10-09, 02:04:00,VALID,916.838,VALID,0,VALID,97.5244,VALID,0,VALID,19.2532,VALID,90,VALID,0,
2000-10-09, 02:05:00,VALID,916.813,VALID,0,VALID,97.3629,VALID,0,VALID,19.2368,VALID,90,VALID,0,
2000-10-09, 02:06:00,VALID,916.805,VALID,0,VALID,97.1989,VALID,0.0169808,VALID,19.237,VALID,90,VALID,0,
2000-10-09, 02:07:00,VALID,916.801,VALID,0,VALID,97.026,VALID,0,VALID,19.2271,VALID,90,VALID,0,
2000-10-09, 02:08:00,VALID,916.801,VALID,0,VALID,96.9217,VALID,0,VALID,19.2368,VALID,90,VALID,0,
2000-10-09, 02:09:00,VALID,916.805,VALID,0,VALID,96.7844,VALID,0.0339617,VALID,19.2234,VALID,90,VALID,0,
2000-10-09, 02:10:00,VALID,916.811,VALID,0,VALID,96.483,VALID,0.0169808,VALID,19.2109,VALID,90,VALID,0,
2000-10-09, 02:11:00,VALID,916.828,VALID,0,VALID,96.4474,VALID,0.0169808,VALID,19.2077,VALID,90,VALID,0,
2000-10-09, 02:12:00,VALID,916.837,VALID,0,VALID,96.5606,VALID,0,VALID,19.234,VALID,177,VALID,0,
2000-10-09, 02:13:00,VALID,916.827,VALID,0,VALID,96.7538,VALID,0.0169808,VALID,19.2435,VALID,198,VALID,0,
2000-10-09, 02:14:00,VALID,916.826,VALID,0,VALID,96.9865,VALID,0,VALID,19.2465,VALID,206,VALID,0,
2000-10-09, 02:15:00,VALID,916.811,VALID,0,VALID,97.0896,VALID,0,VALID,19.2527,VALID,206,VALID,0,
2000-10-09, 02:16:00,VALID,916.801,VALID,0,VALID,97.0946,VALID,0.0169808,VALID,19.2594,VALID,206,VALID,0,
2000-10-09, 02:17:00,VALID,916.81,VALID,0,VALID,97.0654,VALID,0.0339617,VALID,19.2524,VALID,212,VALID,0,
2000-10-09, 02:18:00,VALID,916.801,VALID,0,VALID,97.0603,VALID,0.0169808,VALID,19.2596,VALID,216,VALID,0,
2000-10-09, 02:19:00,VALID,916.805,VALID,0,VALID,96.9535,VALID,0.0169808,VALID,19.2494,VALID,284,VALID,0,
2000-10-09, 02:20:00,VALID,916.811,VALID,0,VALID,96.614,VALID,0.0339617,VALID,19.2209,VALID,335,VALID,0,
2000-10-09, 02:21:00,VALID,916.816,VALID,0,VALID,96.5288,VALID,-0.0169808,VALID,19.2077,VALID,335,VALID,0,
2000-10-09, 02:22:00,VALID,916.806,VALID,0,VALID,96.6165,VALID,0.0169808,VALID,19.2206,VALID,345,VALID,0,
2000-10-09, 02:23:00,VALID,916.81,VALID,0,VALID,96.6636,VALID,0,VALID,19.244,VALID,351,VALID,0,
2000-10-09, 02:24:00,VALID,916.809,VALID,0,VALID,96.6025,VALID,-0.0169808,VALID,19.2142,VALID,351,VALID,0,
2000-10-09, 02:25:00,VALID,916.791,VALID,0,VALID,96.5796,VALID,0.0339617,VALID,19.2109,VALID,339,VALID,0,
2000-10-09, 02:26:00,VALID,916.78,VALID,0,VALID,96.6839,VALID,0,VALID,19.2176,VALID,310,VALID,0,
2000-10-09, 02:27:00,VALID,916.759,VALID,0,VALID,96.8403,VALID,0,VALID,19.2079,VALID,310,VALID,0,
2000-10-09, 02:28:00,VALID,916.723,VALID,0,VALID,96.9459,VALID,0.0169808,VALID,19.2082,VALID,310,VALID,0,
2000-10-09, 02:29:00,VALID,916.704,VALID,0,VALID,97.0883,VALID,0,VALID,19.198,VALID,310,VALID,0,
2000-10-09, 02:30:00,VALID,916.688,VALID,0,VALID,97.1862,VALID,0.0169808,VALID,19.1853,VALID,310,VALID,0,
2000-10-09, 02:31:00,VALID,916.66,VALID,0,VALID,97.2447,VALID,0.0169808,VALID,19.1724,VALID,311,VALID,0,
2000-10-09, 02:32:00,VALID,916.641,VALID,0,VALID,97.3693,VALID,0,VALID,19.1754,VALID,313,VALID,0,
2000-10-09, 02:33:00,VALID,916.62,VALID,0,VALID,97.4621,VALID,0,VALID,19.195,VALID,313,VALID,0,
2000-10-09, 02:34:00,VALID,916.609,VALID,0,VALID,97.4876,VALID,0,VALID,19.1948,VALID,313,VALID,0,
2000-10-09, 02:35:00,VALID,916.606,VALID,0,VALID,97.4685,VALID,0.0169808,VALID,19.1918,VALID,313,VALID,0,
2000-10-09, 02:36:00,VALID,916.598,VALID,0,VALID,97.457,VALID,0,VALID,19.1793,VALID,313,VALID,0,
2000-10-09, 02:37:00,VALID,916.589,VALID,0,VALID,97.5092,VALID,0,VALID,19.163,VALID,313,VALID,0,
2000-10-09, 02:38:00,VALID,916.585,VALID,0,VALID,97.5804,VALID,0,VALID,19.1528,VALID,313,VALID,0,
2000-10-09, 02:39:00,VALID,916.583,VALID,0,VALID,97.6592,VALID,0,VALID,19.1463,VALID,313,VALID,0,
2000-10-09, 02:40:00,VALID,916.572,VALID,0,VALID,97.7355,VALID,0.0509425,VALID,19.1563,VALID,313,VALID,0,
2000-10-09, 02:41:00,VALID,916.568,VALID,0,VALID,97.7686,VALID,0.0339617,VALID,19.1491,VALID,313,VALID,0,
2000-10-09, 02:42:00,VALID,916.57,VALID,0,VALID,97.8055,VALID,0.0169808,VALID,19.1525,VALID,313,VALID,0,
2000-10-09, 02:43:00,VALID,916.568,VALID,0,VALID,97.8042,VALID,0.0339617,VALID,19.1396,VALID,313,VALID,0,
2000-10-09, 02:44:00,VALID,916.56,VALID,0,VALID,97.8284,VALID,0,VALID,19.1336,VALID,313,VALID,0,
2000-10-09, 02:45:00,VALID,916.551,VALID,0,VALID,97.8525,VALID,0.0169808,VALID,19.1433,VALID,308,VALID,0,
2000-10-09, 02:46:00,VALID,916.543,VALID,0,VALID,97.8678,VALID,0.0169808,VALID,19.1334,VALID,290,VALID,0,
2000-10-09, 02:47:00,VALID,916.527,VALID,0,VALID,97.9148,VALID,0,VALID,19.1334,VALID,290,VALID,0,
2000-10-09, 02:48:00,VALID,916.515,VALID,0,VALID,97.9682,VALID,0.0169808,VALID,19.1595,VALID,290,VALID,0,
2000-10-09, 02:49:00,VALID,916.516,VALID,0,VALID,97.9975,VALID,0.0169808,VALID,19.1662,VALID,290,VALID,0,
2000-10-09, 02:50:00,VALID,916.511,VALID,0,VALID,97.9937,VALID,0,VALID,19.1563,VALID,288,VALID,0,
2000-10-09, 02:51:00,VALID,916.512,VALID,0,VALID,98.0687,VALID,0,VALID,19.1759,VALID,282,VALID,0,
2000-10-09, 02:52:00,VALID,916.499,VALID,0,VALID,98.075,VALID,0.0169808,VALID,19.1724,VALID,282,VALID,0,
2000-10-09, 02:53:00,VALID,916.5,VALID,0,VALID,98.0738,VALID,0.0169808,VALID,19.1657,VALID,282,VALID,0,
2000-10-09, 02:54:00,VALID,916.485,VALID,0,VALID,98.0763,VALID,0,VALID,19.16,VALID,260,VALID,0,
2000-10-09, 02:55:00,VALID,916.492,VALID,0,VALID,98.0102,VALID,0,VALID,19.1406,VALID,194,VALID,0,
2000-10-09, 02:56:00,VALID,916.474,VALID,0,VALID,97.9352,VALID,0.0169808,VALID,19.1083,VALID,167,VALID,0,
2000-10-09, 02:57:00,VALID,916.467,VALID,0,VALID,97.9085,VALID,0,VALID,19.0723,VALID,153,VALID,0,
2000-10-09, 02:58:00,VALID,916.457,VALID,0,VALID,97.8805,VALID,0.0169808,VALID,19.0529,VALID,140,VALID,0,
2000-10-09, 02:59:00,VALID,916.436,VALID,0,VALID,97.8614,VALID,0.0169808,VALID,19.0171,VALID,138,VALID,0,
2000-10-09, 03:00:00,VALID,916.423,VALID,0,VALID,97.8462,VALID,0.0169808,VALID,19.0146,VALID,138,VALID,0,
2000-10-09, 03:01:00,VALID,916.406,VALID,0,VALID,97.8436,VALID,0.0169808,VALID,19.0044,VALID,138,VALID,0,
2000-10-09, 03:02:00,VALID,916.392,VALID,0,VALID,97.8233,VALID,0.0339617,VALID,18.9915,VALID,138,VALID,0,
2000-10-09, 03:03:00,VALID,916.363,VALID,0,VALID,97.8373,VALID,0,VALID,18.9784,VALID,138,VALID,0,
2000-10-09, 03:04:00,VALID,916.339,VALID,0,VALID,97.7953,VALID,0,VALID,18.9885,VALID,138,VALID,0,
2000-10-09, 03:05:00,VALID,916.319,VALID,0,VALID,97.7444,VALID,0,VALID,18.9654,VALID,138,VALID,0,
2000-10-09, 03:06:00,VALID,916.294,VALID,0,VALID,97.7025,VALID,0,VALID,18.9724,VALID,138,VALID,0,
2000-10-09, 03:07:00,VALID,916.279,VALID,0,VALID,97.6554,VALID,0,VALID,18.95,VALID,138,VALID,0,
2000-10-09, 03:08:00,VALID,916.266,VALID,0,VALID,97.602,VALID,0.0169808,VALID,18.9401,VALID,138,VALID,0,
2000-10-09, 03:09:00,VALID,916.249,VALID,0,VALID,97.644,VALID,-0.0169808,VALID,18.9341,VALID,138,VALID,0,
2000-10-09, 03:10:00,VALID,916.241,VALID,0,VALID,97.7101,VALID,0,VALID,18.9272,VALID,138,VALID,0,
2000-10-09, 03:11:00,VALID,916.232,VALID,0,VALID,97.7393,VALID,0,VALID,18.9502,VALID,138,VALID,0,
2000-10-09, 03:12:00,VALID,916.202,VALID,0,VALID,97.7037,VALID,-0.0169808,VALID,18.9473,VALID,138,VALID,0,
2000-10-09, 03:13:00,VALID,916.199,VALID,0,VALID,97.6758,VALID,0,VALID,18.9373,VALID,138,VALID,0,
2000-10-09, 03:14:00,VALID,916.186,VALID,0,VALID,97.6936,VALID,0,VALID,18.9274,VALID,138,VALID,0,
2000-10-09, 03:15:00,VALID,916.176,VALID,0,VALID,97.7851,VALID,0,VALID,18.9274,VALID,240,VALID,0,
2000-10-09, 03:16:00,VALID,916.163,VALID,0,VALID,97.8856,VALID,-0.0169808,VALID,18.9239,VALID,313,VALID,0,
2000-10-09, 03:17:00,VALID,916.157,VALID,0,VALID,98.0165,VALID,0,VALID,18.9216,VALID,313,VALID,0,
2000-10-09, 03:18:00,VALID,916.146,VALID,0,VALID,98.1691,VALID,0,VALID,18.9311,VALID,314,VALID,0,
2000-10-09, 03:19:00,VALID,916.143,VALID,0,VALID,98.2772,VALID,0,VALID,18.9179,VALID,315,VALID,0,
2000-10-09, 03:20:00,VALID,916.138,VALID,0,VALID,98.3357,VALID,0,VALID,18.9246,VALID,315,VALID,0,
2000-10-09, 03:21:00,VALID,916.141,VALID,0,VALID,98.3917,VALID,0,VALID,18.9048,VALID,315,VALID,0,
2000-10-09, 03:22:00,VALID,916.157,VALID,0,VALID,98.4286,VALID,0.0169808,VALID,18.908,VALID,315,VALID,0,
2000-10-09, 03:23:00,VALID,916.176,VALID,0,VALID,98.4616,VALID,0,VALID,18.902,VALID,315,VALID,0,
2000-10-09, 03:24:00,VALID,916.194,VALID,0,VALID,98.4692,VALID,-0.0169808,VALID,18.9053,VALID,315,VALID,0,
2000-10-09, 03:25:00,VALID,916.223,VALID,0,VALID,98.4921,VALID,-0.0169808,VALID,18.9112,VALID,315,VALID,0,
2000-10-09, 03:26:00,VALID,916.235,VALID,0,VALID,98.5036,VALID,-0.0169808,VALID,18.9209,VALID,315,VALID,0,
2000-10-09, 03:27:00,VALID,916.251,VALID,0,VALID,98.5188,VALID,0,VALID,18.9115,VALID,315,VALID,0,
2000-10-09, 03:28:00,VALID,916.248,VALID,0,VALID,98.5417,VALID,-0.0169808,VALID,18.9078,VALID,315,VALID,0,
2000-10-09, 03:29:00,VALID,916.248,VALID,0,VALID,98.5722,VALID,0,VALID,18.9147,VALID,315,VALID,0,
2000-10-09, 03:30:00,VALID,916.244,VALID,0,VALID,98.5964,VALID,0,VALID,18.908,VALID,315,VALID,0,
2000-10-09, 03:31:00,VALID,916.232,VALID,0,VALID,98.6193,VALID,-0.0339617,VALID,18.9147,VALID,315,VALID,0,
2000-10-09, 03:32:00,VALID,916.227,VALID,0,VALID,98.5939,VALID,-0.0169808,VALID,18.8986,VALID,315,VALID,0,
2000-10-09, 03:33:00,VALID,916.238,VALID,0,VALID,98.6117,VALID,-0.0169808,VALID,18.9018,VALID,10,VALID,0,
2000-10-09, 03:34:00,VALID,916.239,VALID,0,VALID,98.6358,VALID,-0.0339617,VALID,18.9057,VALID,93,VALID,0,
2000-10-09, 03:35:00,VALID,916.264,VALID,0,VALID,98.6562,VALID,-0.0339617,VALID,18.902,VALID,93,VALID,0,
2000-10-09, 03:36:00,VALID,916.263,VALID,0,VALID,98.6765,VALID,-0.0169808,VALID,18.9085,VALID,93,VALID,0,
2000-10-09, 03:37:00,VALID,916.268,VALID,0,VALID,98.693,VALID,-0.0509425,VALID,18.9053,VALID,93,VALID,0,
2000-10-09, 03:38:00,VALID,916.258,VALID,0,VALID,98.7096,VALID,-0.0509425,VALID,18.915,VALID,93,VALID,0,
2000-10-09, 03:39:00,VALID,916.252,VALID,0,VALID,98.7134,VALID,-0.0509425,VALID,18.9348,VALID,93,VALID,0,
2000-10-09, 03:40:00,VALID,916.247,VALID,0,VALID,98.7185,VALID,-0.0339617,VALID,18.9343,VALID,93,VALID,0,
2000-10-09, 03:41:00,VALID,916.245,VALID,0,VALID,98.7325,VALID,-0.0509425,VALID,18.9182,VALID,93,VALID,0,
2000-10-09, 03:42:00,VALID,916.229,VALID,0,VALID,98.7274,VALID,0,VALID,18.9276,VALID,93,VALID,0,
2000-10-09, 03:43:00,VALID,916.231,VALID,0,VALID,98.7261,VALID,-0.0339617,VALID,18.9083,VALID,95,VALID,0,
2000-10-09, 03:44:00,VALID,916.243,VALID,0,VALID,98.7337,VALID,-0.0679233,VALID,18.915,VALID,100,VALID,0,
2000-10-09, 03:45:00,VALID,916.262,VALID,0,VALID,98.7299,VALID,-0.0509425,VALID,18.9117,VALID,107,VALID,0,
2000-10-09, 03:46:00,VALID,916.272,VALID,0,VALID,98.7541,VALID,-0.0339617,VALID,18.9214,VALID,102,VALID,0,
2000-10-09, 03:47:00,VALID,916.278,VALID,0,VALID,98.7439,VALID,-0.0509425,VALID,18.9214,VALID,103,VALID,0.189556,
2000-10-09, 03:48:00,VALID,916.278,VALID,0,VALID,98.7299,VALID,-0.0339617,VALID,18.9283,VALID,96,VALID,0.710726,